Retour au catalogue

STARLINK-31738

ActifCommunicationsVLEO
NORAD 59535·PAYLOAD·🇺🇸 United States

Lancé Apr 18, 2024 depuis Cape Canaveral Space Force Station

Loading…

Prochains Passages (prochaines 24 heures)

TLE

FraisSource: CelesTrak SupGP

Époque: Sep 15, 2026, 03:10 UTC

1 59535C 24074B   26258.13243056  .00042423  00000+0  15370-2 0  2581
2 59535  43.0023 349.8249 0001498 269.6574 335.6478 15.27549052    18

Suivez STARLINK-31738 en temps réel avec AllMySat

Download on the App Store